Weather History for Nashua, NH

Change the Weather History Date:

Monday, October 31, 2011

  Actual Average Record
Temperature  
Mean Temperature 36 °F -  
Max Temperature 50 °F 56 °F 73 °F (1950)
Min Temperature 23 °F 30 °F 17 °F (1966)
Degree Days  
Heating Degree Days 28    
Moisture  
Dew Point 27 °F    
Average Humidity 80    
Maximum Humidity 100    
Minimum Humidity 39    
Precipitation  
Precipitation 0.00 in - - ()
Sea Level Pressure  
Sea Level Pressure 30.38 in    
Wind  
Wind Speed 1 mph (NNW)    
Max Wind Speed 6 mph    
Max Gust Speed -    
Visibility 8 miles    
Events      
Averages and records for this station are not official NWS values.
T = Trace of Precipitation, MM = Missing Value Source: NWS Daily Summary

Daily Weather History Graph

Daily Weather History Graph

Search for Another Location

Airport:

Trip Planner

Search our weather history database for the weather conditions in past years. The results will help you decide how hot, cold, wet, or windy it might be!

Date:

Astronomy

Oct. 31, 2011 Rise Set
Actual Time 7:18 AM EDT 5:40 PM EDT
Civil Twilight 6:49 AM EDT 6:09 PM EDT
Nautical Twilight 6:15 AM EDT 6:42 PM EDT
Astronomical Twilight 5:42 AM EDT 7:15 PM EDT
Moon 12:26 PM EDT (10/31) 10:10 PM EDT (10/31)
Length of Visible Light 11h 20m
Length of Day
10h 21m
Waxing Crescent, 29% of the Moon is Illuminated
Oct 31
Waxing Crescent
Nov 2
First Quarter
Nov 10
Full
Nov 18
Last Quarter
Nov 25
New

Hourly Weather History & Observations

Time (EDT) Temp. Windchill Dew Point Humidity Pressure Visibility Wind Dir Wind Speed Gust Speed Precip Events Conditions
12:51 AM 27.1 °F - 25.2 °F 92% 30.32 in 10.0 mi Calm Calm - N/A   Clear
2:20 AM 24.8 °F - 21.2 °F 86% 30.33 in 1.8 mi Calm Calm - N/A   Clear
2:23 AM 24.8 °F - 23.0 °F 93% 30.33 in 1.0 mi Calm Calm - N/A   Clear
2:51 AM 24.1 °F - 23.0 °F 96% 30.35 in 1.0 mi Calm Calm - N/A   Clear
2:56 AM 24.8 °F - 23.0 °F 93% 30.34 in 1.5 mi Calm Calm - N/A   Clear
3:03 AM 24.8 °F - 23.0 °F 93% 30.34 in 2.5 mi Calm Calm - N/A   Clear
3:16 AM 24.8 °F - 24.8 °F 100% 30.34 in 8.0 mi Calm Calm - N/A   Clear
3:51 AM 25.2 °F - 24.1 °F 96% 30.36 in 9.0 mi Calm Calm - N/A   Clear
4:51 AM 23.0 °F - 22.1 °F 96% 30.38 in 7.0 mi Calm Calm - N/A   Clear
6:51 AM 23.0 °F - 21.0 °F 92% 30.40 in 10.0 mi Calm Calm - N/A   Clear
7:51 AM 24.1 °F - 22.1 °F 92% 30.41 in 10.0 mi Calm Calm - N/A   Clear
8:51 AM 27.1 °F - 25.2 °F 92% 30.43 in 10.0 mi Calm Calm - N/A   Clear
9:51 AM 32.0 °F - 27.1 °F 82% 30.43 in 10.0 mi Calm Calm - N/A   Clear
10:51 AM 37.9 °F - 29.1 °F 71% 30.42 in 8.0 mi Calm Calm - N/A   Clear
11:51 AM 43.9 °F 42.3 °F 30.0 °F 58% 30.42 in 10.0 mi East 3.5 mph - N/A   Clear
12:51 PM 47.8 °F - 30.0 °F 50% 30.40 in 10.0 mi Variable 3.5 mph - N/A   Clear
1:51 PM 50.0 °F - 26.1 °F 39% 30.39 in 10.0 mi Variable 4.6 mph - N/A   Clear
2:51 PM 50.0 °F - 27.1 °F 41% 30.38 in 10.0 mi SSE 5.8 mph - N/A   Clear
3:51 PM 50.0 °F - 27.1 °F 41% 30.38 in 10.0 mi Calm Calm - N/A   Clear
4:51 PM 43.9 °F - 32.9 °F 65% 30.38 in 10.0 mi Calm Calm - N/A   Clear
5:51 PM 38.8 °F - 32.0 °F 76% 30.39 in 10.0 mi Calm Calm - N/A   Clear
6:51 PM 36.9 °F - 32.0 °F 83% 30.40 in 10.0 mi Calm Calm - N/A   Clear
7:51 PM 36.0 °F - 32.0 °F 86% 30.42 in 10.0 mi Calm Calm - N/A   Clear
8:51 PM 34.9 °F 32.0 °F 32.0 °F 89% 30.42 in 10.0 mi NW 3.5 mph - N/A   Clear
9:51 PM 34.0 °F 31.0 °F 31.1 °F 89% 30.42 in 10.0 mi NW 3.5 mph - N/A   Clear
11:51 PM 32.9 °F - 31.1 °F 93% 30.40 in 10.0 mi Calm Calm - N/A   Clear